Location: Unspecified
(0.0000°N, 0.0000°E)
Time: 00:12:43
(UTC+00:00)

A-11 Canister half - All Passes

Search period start: 13 December 2018 00:00
Search period end: 23 December 2018 00:00
Orbit: 1527 x 1682 km, 47.3° (Epoch: 12 December)

Date Brightness Start Highest point End Pass type
(mag) Time Alt. Az. Time Alt. Az. Time Alt. Az.
13 Dec - 03:21:37 10° S 03:28:31 22° SE 03:35:30 10° E visible
13 Dec - 05:23:48 10° SW 05:33:32 78° NW 05:43:34 10° NE visible
13 Dec - 07:34:00 10° WNW 07:39:03 15° NW 07:44:11 10° NNW daylight
13 Dec - 16:11:40 10° NNW 16:20:59 48° NE 16:29:58 10° ESE daylight
13 Dec - 18:17:17 10° WNW 18:25:48 36° SW 18:34:10 10° SSE visible
14 Dec - 03:00:21 10° S 03:06:51 20° SE 03:13:26 10° E visible
14 Dec - 05:02:11 10° SW 05:11:56 83° NW 05:21:57 10° NE visible
14 Dec - 07:11:46 10° W 07:17:21 16° NW 07:23:01 10° N daylight
14 Dec - 15:50:08 10° NNW 15:59:21 45° NE 16:08:15 10° ESE daylight
14 Dec - 17:55:27 10° WNW 18:04:10 39° SW 18:12:44 10° SSE daylight
15 Dec - 02:39:07 10° S 02:45:11 18° SE 02:51:20 10° E visible
15 Dec - 04:40:35 10° SW 04:50:17 88° NW 05:00:19 10° NE visible
15 Dec - 06:49:37 10° W 06:55:39 18° NW 07:01:48 10° N daylight
15 Dec - 15:28:37 10° NNW 15:37:43 42° NE 15:46:32 10° ESE daylight
15 Dec - 17:33:39 10° WNW 17:42:34 42° SW 17:51:17 10° SSE daylight
16 Dec - 02:17:57 10° S 02:23:31 17° SE 02:29:09 10° E visible
16 Dec - 04:18:59 10° SW 04:28:40 87° SE 04:38:40 10° NE visible
16 Dec - 06:27:32 10° W 06:33:58 19° NW 06:40:31 10° N daylight
16 Dec - 15:07:08 10° NNW 15:16:05 39° NE 15:24:46 10° ESE daylight
16 Dec - 17:11:52 10° WNW 17:20:57 45° SW 17:29:50 10° SSE daylight
17 Dec - 01:56:50 10° SSE 02:01:51 15° SE 02:06:54 10° ESE visible
17 Dec - 03:57:24 10° SW 04:07:03 82° SE 04:17:01 10° NE visible
17 Dec - 06:05:30 10° W 06:12:16 21° NW 06:19:13 10° N daylight
17 Dec - 14:45:38 10° NNW 14:54:27 37° NE 15:03:00 10° ESE daylight
17 Dec - 16:50:06 10° WNW 16:59:20 48° SW 17:08:21 10° SSE daylight
18 Dec - 01:35:49 10° SSE 01:40:10 14° SE 01:44:33 10° ESE visible
18 Dec - 03:35:51 10° SW 03:45:27 77° SE 03:55:21 10° NE visible
18 Dec - 05:43:31 10° W 05:50:36 22° NW 05:57:52 10° N daylight
18 Dec - 14:24:09 10° NNW 14:32:49 34° NE 14:41:13 10° ESE daylight
18 Dec - 16:28:20 10° NW 16:37:43 52° SW 16:46:52 10° SSE daylight
19 Dec - 01:14:58 10° SSE 01:18:29 12° SE 01:22:02 10° ESE visible
19 Dec - 03:14:17 10° SSW 03:23:49 72° SE 03:33:39 10° NE visible
19 Dec - 05:21:33 10° W 05:28:55 24° NW 05:36:29 10° N visible
19 Dec - 14:02:41 10° N 14:11:10 32° NE 14:19:23 10° ESE daylight
19 Dec - 16:06:36 10° NW 16:16:06 56° SW 16:25:22 10° SSE daylight
20 Dec - 00:54:25 10° SSE 00:56:48 11° SE 00:59:11 10° ESE visible
20 Dec - 02:52:44 10° SSW 03:02:12 67° SE 03:11:58 10° NE visible
20 Dec - 04:59:39 10° W 05:07:16 26° NW 05:15:06 10° N visible
20 Dec - 13:41:14 10° N 13:49:30 30° NE 13:57:33 10° ESE daylight
20 Dec - 15:44:52 10° NW 15:54:30 60° SW 16:03:51 10° SSE daylight
21 Dec - 02:31:13 10° SSW 02:40:35 63° SE 02:50:16 10° NE visible
21 Dec - 04:37:45 10° WSW 04:45:36 28° NW 04:53:41 10° N visible
21 Dec - 13:19:48 10° N 13:27:51 28° NE 13:35:41 10° ESE daylight
21 Dec - 15:23:08 10° NW 15:32:52 64° SW 15:42:20 10° SSE daylight
21 Dec - 17:37:17 10° SW 17:38:22 10° SW 17:39:26 10° SW daylight
22 Dec - 02:09:41 10° SSW 02:18:59 59° SE 02:28:32 10° NE visible
22 Dec - 04:15:54 10° WSW 04:23:57 30° NW 04:32:15 10° N visible
22 Dec - 12:58:24 10° N 13:06:11 26° NE 13:13:47 10° E daylight
22 Dec - 15:01:27 10° NW 15:11:16 69° SW 15:20:48 10° SSE daylight
22 Dec - 17:13:49 10° WSW 17:16:40 11° SW 17:19:30 10° SSW daylight
